Regional Weather Roundup
Issued by NWS Raleigh/Durham, NC

Home | Current Version | Previous Version | Text Only | Print | Product List | Glossary On
Versions: 1 2 3 4 5 6 7 8 9 10 11 12 13 14 15 16 17 18 19 20 21 22 23 24 25 26 27 28 29 30 31 32 33 34 35 36 37 38 39 40 41 42 43 44 45 46 47 48 49 50
000
ASUS42 KRAH 011210
RWRRAH
NORTH CAROLINA WEATHER ROUNDUP
NATIONAL WEATHER SERVICE RALEIGH NC
700 AM EST SUN FEB 01 2015

NOTE: "FAIR" INDICATES FEW OR NO CLOUDS BELOW 12,000 FEET WITH NO
SIGNIFICANT WEATHER AND/OR OBSTRUCTIONS TO VISIBILITY.

NCZ001-053-055-056-065-067-011300-
WESTERN NORTH CAROLINA

CITY           SKY/WX    TMP DP  RH WIND       PRES   REMARKS
ASHEVILLE      CLOUDY    34  22  61 CALM      30.17F
JEFFERSON      NOT AVBL
MORGANTON      CLOUDY    35  27  70 NE3       30.23F
HICKORY        CLOUDY    37  24  59 CALM      30.20F
RUTHERFORDTON  CLOUDY    37  25  61 CALM      30.23R
MOUNT AIRY     CLOUDY    38  18  44 S6        30.24R WCI  33
BOONE          CLOUDY    33  21  62 CALM      30.17R
$$

NCZ021-022-025-041-071-084-088-011300-
CENTRAL NORTH CAROLINA

CITY           SKY/WX    TMP DP  RH WIND       PRES   REMARKS
CHARLOTTE      CLOUDY    41  20  43 S5        30.25S
GREENSBORO     CLOUDY    38  19  46 CALM      30.23S
WINSTON-SALEM  CLOUDY    37  19  48 CALM      30.24R
RALEIGH-DURHAM CLOUDY    37  19  48 CALM      30.28R
FORT BRAGG     CLOUDY    38  22  53 W2        30.29R
FAYETTEVILLE   CLOUDY    38  25  59 CALM      30.30R
BURLINGTON     CLOUDY    34  20  56 E5        30.24F WCI  30
LAURINBURG     CLOUDY    37  27  67 W3        30.31R
$$

NCZ011-015-027-028-043-044-047-080-103-011300-
NORTHEASTERN NORTH CAROLINA

CITY           SKY/WX    TMP DP  RH WIND       PRES   REMARKS
ROCKY MT-WILSO CLOUDY    34  24  67 S3        30.29R
GREENVILLE     CLOUDY    36  23  60 CALM      30.30S
WASHINGTON     MOCLDY    34  21  60 CALM      30.30F
ELIZABETH CITY PTCLDY    30  20  66 CALM      30.30R
MANTEO         CLEAR     36  27  69 SW3       30.30S
CAPE HATTERAS  CLEAR     40  30  67 W7        30.31S
$$

NCZ078-087-090-091-093-098-101-011300-
SOUTHEASTERN NORTH CAROLINA

CITY           SKY/WX    TMP DP  RH WIND       PRES   REMARKS
LUMBERTON      CLOUDY    39  29  67 SW5       30.31R
GOLDSBORO      CLOUDY    37  28  68 CALM      30.28S
KINSTON        CLOUDY    36  25  64 S6        30.29F WCI  31
KENANSVILLE    CLOUDY    33  27  78 CALM      30.30F
NEW BERN       MOCLDY    37  24  59 SW7       30.33R WCI  32
CHERRY POINT   MOCLDY    36  26  67 SW7       30.33S WCI  30
BEAUFORT       MOCLDY    42  31  64 W6        30.33R
JACKSONVILLE   CLOUDY    37  27  67 SW3       30.32S
WILMINGTON     CLOUDY    37  33  85 CALM      30.32R
$$



USA.gov is the U.S. government's official web portal to all federal, state and local government web resources and services.